This is the latest recevied weather packets stored in our database for station/object OK1FET-5. If no packets are shown the sender has not sent any weather packets the latest 10 day(s).
| Time | Temp. | Humidity | Pressure | Rain* | Wind** | Luminosity | Snow |
|---|---|---|---|---|---|---|---|
| 1778041420 | 12.22° C | 77% | 1006.9 hPa | - | - | - | - |
| 1778041125 | 12.22° C | 78% | 1006.8 hPa | - | - | - | - |
| 1778040831 | 12.22° C | 77% | 1006.8 hPa | - | - | - | - |
| 1778040538 | 12.78° C | 79% | 1006.7 hPa | - | - | - | - |
| 1778040243 | 12.22° C | 80% | 1006.6 hPa | - | - | - | - |
| 1778039949 | 12.22° C | 84% | 1006.6 hPa | - | - | - | - |
| 1778039654 | 11.67° C | 88% | 1006.4 hPa | - | - | - | - |
| 1778039360 | 11.11° C | 90% | 1006.5 hPa | - | - | - | - |
| 1778039066 | 10.56° C | 92% | 1006.5 hPa | - | - | - | - |
| 1778038772 | 10.56° C | 92% | 1006.6 hPa | - | - | - | - |
| 1778038478 | 10.56° C | 91% | 1006.6 hPa | - | - | - | - |
| 1778038184 | 10.56° C | 93% | 1006.6 hPa | - | - | - | - |
| 1778037889 | 10.56° C | 92% | 1006.6 hPa | - | - | - | - |
| 1778037595 | 10.56° C | 91% | 1006.6 hPa | - | - | - | - |
| 1778037301 | 10.56° C | 90% | 1006.6 hPa | - | - | - | - |
| 1778037007 | 10.56° C | 90% | 1006.6 hPa | - | - | - | - |
| 1778036713 | 10.56° C | 89% | 1006.6 hPa | - | - | - | - |
| 1778036419 | 10.56° C | 90% | 1006.6 hPa | - | - | - | - |
| 1778036124 | 10.56° C | 91% | 1006.5 hPa | - | - | - | - |
| 1778035830 | 10.56° C | 91% | 1006.5 hPa | - | - | - | - |
| 1778035536 | 10.56° C | 90% | 1006.6 hPa | - | - | - | - |
| 1778035536 | 10.56° C | 90% | 1006.6 hPa | - | - | - | - |
| 1778035242 | 10.56° C | 90% | 1006.7 hPa | - | - | - | - |
| 1778034948 | 10.56° C | 92% | 1006.8 hPa | - | - | - | - |
| 1778034654 | 10.56° C | 93% | 1006.8 hPa | - | - | - | - |
* Rain since midnight (hover to see other rain measurements)
** Current wind speed in m/s (hover to see current wind gust speed)